Weather History for Window Rock, AZ

Change the Weather History Date:

Tuesday, February 25, 2014

  Actual Average Record
Temperature  
Mean Temperature 41 °F -  
Max Temperature 61 °F 50 °F 74 °F (1986)
Min Temperature 21 °F 21 °F 5 °F (1974)
Degree Days  
Heating Degree Days 24    
Moisture  
Dew Point 13 °F    
Average Humidity 36    
Maximum Humidity 60    
Minimum Humidity 17    
Precipitation  
Precipitation 0.00 in - - ()
Sea Level Pressure  
Sea Level Pressure 29.98 in    
Wind  
Wind Speed 4 mph (West)    
Max Wind Speed 17 mph    
Max Gust Speed 25 mph    
Visibility 10 miles    
Events      
Averages and records for this station are not official NWS values.
T = Trace of Precipitation, MM = Missing Value Source: NWS Daily Summary

Daily Weather History Graph

Daily Weather History Graph

Search for Another Location

Airport:

Trip Planner

Search our weather history database for the weather conditions in past years. The results will help you decide how hot, cold, wet, or windy it might be!

Date:

Astronomy

Feb. 25, 2014 Rise Set
Actual Time 6:51 AM MST 6:07 PM MST
Civil Twilight 6:25 AM MST 6:33 PM MST
Nautical Twilight 5:55 AM MST 7:03 PM MST
Astronomical Twilight 5:26 AM MST 7:32 PM MST
Moon 3:43 AM MST (2/25) 2:22 PM MST (2/25)
Length of Visible Light 12h 08m
Length of Day
11h 16m
Waning Crescent, 17% of the Moon is Illuminated
Feb 25
Waning Crescent
Mar 1
New
Mar 8
First Quarter
Mar 16
Full
Mar 23
Last Quarter

Hourly Weather History & Observations

Time (MST) Temp. Windchill Dew Point Humidity Pressure Visibility Wind Dir Wind Speed Gust Speed Precip Events Conditions
12:53 AM 26.1 °F 20.5 °F 10.0 °F 51% 30.02 in 10.0 mi NE 4.6 mph - N/A   Clear
1:53 AM 21.9 °F - 7.0 °F 53% 30.02 in 10.0 mi Calm Calm - N/A   Clear
2:53 AM 21.9 °F - 9.0 °F 58% 30.01 in 10.0 mi Calm Calm - N/A   Clear
3:53 AM 21.9 °F - 8.1 °F 55% 30.01 in 10.0 mi Calm Calm - N/A   Scattered Clouds
4:53 AM 23.0 °F - 9.0 °F 55% 30.00 in 10.0 mi Calm Calm - N/A   Partly Cloudy
5:53 AM 23.0 °F - 10.9 °F 60% 30.03 in 10.0 mi Calm Calm - N/A   Scattered Clouds
6:53 AM 21.9 °F - 9.0 °F 58% 30.08 in 10.0 mi Calm Calm - N/A   Clear
7:53 AM 27.0 °F - 10.0 °F 49% 30.11 in 10.0 mi Calm Calm - N/A   Clear
8:53 AM 36.0 °F - 12.9 °F 39% 30.08 in 10.0 mi Calm Calm - N/A   Clear
9:53 AM 46.0 °F 44.8 °F 16.0 °F 30% 30.05 in 10.0 mi Variable 3.5 mph - N/A   Clear
10:53 AM 57.0 °F - 15.1 °F 19% 29.98 in 10.0 mi Variable 3.5 mph - N/A   Clear
11:53 AM 61.0 °F - 18.0 °F 19% 29.96 in 10.0 mi West 11.5 mph 18.4 mph N/A   Clear
12:53 PM 61.0 °F - 17.1 °F 18% 29.92 in 10.0 mi WSW 17.3 mph - N/A   Clear
1:53 PM 61.0 °F - 17.1 °F 18% 29.91 in 10.0 mi West 11.5 mph 21.9 mph N/A   Clear
2:53 PM 61.0 °F - 16.0 °F 17% 29.90 in 10.0 mi West 12.7 mph 21.9 mph N/A   Clear
3:53 PM 59.0 °F - 15.1 °F 18% 29.90 in 10.0 mi West 13.8 mph 25.3 mph N/A   Clear
4:53 PM 59.0 °F - 14.0 °F 17% 29.91 in 10.0 mi West 16.1 mph 25.3 mph N/A   Clear
5:53 PM 55.0 °F - 14.0 °F 20% 29.94 in 10.0 mi West 10.4 mph - N/A   Clear
6:53 PM 48.9 °F - 15.1 °F 26% 29.97 in 10.0 mi WSW 5.8 mph - N/A   Clear
7:53 PM 46.0 °F 44.8 °F 16.0 °F 30% 29.98 in 10.0 mi SSW 3.5 mph - N/A   Clear
8:53 PM 43.0 °F 41.3 °F 16.0 °F 34% 29.97 in 10.0 mi NE 3.5 mph - N/A   Clear
9:53 PM 39.9 °F - 16.0 °F 38% 29.95 in 10.0 mi Calm Calm - N/A   Clear
10:53 PM 34.0 °F - 14.0 °F 44% 29.92 in 10.0 mi Calm Calm - N/A   Clear
11:53 PM 36.0 °F - 15.1 °F 43% 29.90 in 10.0 mi Calm Calm - N/A   Clear